Вернуться в каталог

KUIPER-00047

АктивенСвязьLEO
NORAD 64507·PAYLOAD·🇺🇸 United States

Запущен Jun 23, 2025 с Cape Canaveral Space Force Station

Loading…

Ближайшие Пролёты (ближайшие 24 часа)

TLE

СвежийSource: CelesTrak SupGP

Эпоха: Sep 14, 2026, 20:29 UTC

1 64507C 25134H   26257.85359954  .00003717  00000+0  48668-3 0  2576
2 64507  51.8977  99.0686 0000798 109.5113 355.0966 14.79916408    17

Отслеживайте KUIPER-00047 в реальном времени с AllMySat

Download on the App Store